Index of /20260411/WXO-DD/model_gdps/15km/12/048
Name Last modified Size Description
Parent Directory -
20260411T12Z_MSC_GDPS_AbsoluteVorticity_IsbL-0200_LatLon0.15_PT048H.grib2 2026-04-11 16:24 1.2M
20260411T12Z_MSC_GDPS_AbsoluteVorticity_IsbL-0250_LatLon0.15_PT048H.grib2 2026-04-11 16:24 1.3M
20260411T12Z_MSC_GDPS_AbsoluteVorticity_IsbL-0500_LatLon0.15_PT048H.grib2 2026-04-11 16:24 1.2M
20260411T12Z_MSC_GDPS_AbsoluteVorticity_IsbL-0700_LatLon0.15_PT048H.grib2 2026-04-11 16:24 1.3M
20260411T12Z_MSC_GDPS_AbsoluteVorticity_IsbL-0850_LatLon0.15_PT048H.grib2 2026-04-11 16:24 1.6M
20260411T12Z_MSC_GDPS_AirTemp-Max_AGL-2m_LatLon0.15_PT048H.grib2 2026-04-11 16:24 742K
20260411T12Z_MSC_GDPS_AirTemp-Min_AGL-2m_LatLon0.15_PT048H.grib2 2026-04-11 16:24 789K
20260411T12Z_MSC_GDPS_AirTemp_AGL-120m_LatLon0.15_PT048H.grib2 2026-04-11 16:24 904K
20260411T12Z_MSC_GDPS_AirTemp_AGL-2m_LatLon0.15_PT048H.grib2 2026-04-11 16:24 1.0M
20260411T12Z_MSC_GDPS_AirTemp_AGL-40m_LatLon0.15_PT048H.grib2 2026-04-11 16:24 923K
20260411T12Z_MSC_GDPS_AirTemp_AGL-80m_LatLon0.15_PT048H.grib2 2026-04-11 16:24 913K
20260411T12Z_MSC_GDPS_AirTemp_IsbL-0001_LatLon0.15_PT048H.grib2 2026-04-11 16:24 698K
20260411T12Z_MSC_GDPS_AirTemp_IsbL-0005_LatLon0.15_PT048H.grib2 2026-04-11 16:24 681K
20260411T12Z_MSC_GDPS_AirTemp_IsbL-0010_LatLon0.15_PT048H.grib2 2026-04-11 16:24 756K
20260411T12Z_MSC_GDPS_AirTemp_IsbL-0020_LatLon0.15_PT048H.grib2 2026-04-11 16:24 705K
20260411T12Z_MSC_GDPS_AirTemp_IsbL-0030_LatLon0.15_PT048H.grib2 2026-04-11 16:24 752K
20260411T12Z_MSC_GDPS_AirTemp_IsbL-0050_LatLon0.15_PT048H.grib2 2026-04-11 16:24 815K
20260411T12Z_MSC_GDPS_AirTemp_IsbL-0100_LatLon0.15_PT048H.grib2 2026-04-11 16:24 956K
20260411T12Z_MSC_GDPS_AirTemp_IsbL-0150_LatLon0.15_PT048H.grib2 2026-04-11 16:24 970K
20260411T12Z_MSC_GDPS_AirTemp_IsbL-0175_LatLon0.15_PT048H.grib2 2026-04-11 16:24 961K
20260411T12Z_MSC_GDPS_AirTemp_IsbL-0200_LatLon0.15_PT048H.grib2 2026-04-11 16:24 1.0M
20260411T12Z_MSC_GDPS_AirTemp_IsbL-0225_LatLon0.15_PT048H.grib2 2026-04-11 16:24 1.0M
20260411T12Z_MSC_GDPS_AirTemp_IsbL-0250_LatLon0.15_PT048H.grib2 2026-04-11 16:24 1.0M
20260411T12Z_MSC_GDPS_AirTemp_IsbL-0275_LatLon0.15_PT048H.grib2 2026-04-11 16:24 949K
20260411T12Z_MSC_GDPS_AirTemp_IsbL-0300_LatLon0.15_PT048H.grib2 2026-04-11 16:24 956K
20260411T12Z_MSC_GDPS_AirTemp_IsbL-0350_LatLon0.15_PT048H.grib2 2026-04-11 16:24 931K
20260411T12Z_MSC_GDPS_AirTemp_IsbL-0400_LatLon0.15_PT048H.grib2 2026-04-11 16:24 944K
20260411T12Z_MSC_GDPS_AirTemp_IsbL-0450_LatLon0.15_PT048H.grib2 2026-04-11 16:24 963K
20260411T12Z_MSC_GDPS_AirTemp_IsbL-0500_LatLon0.15_PT048H.grib2 2026-04-11 16:24 1.0M
20260411T12Z_MSC_GDPS_AirTemp_IsbL-0550_LatLon0.15_PT048H.grib2 2026-04-11 16:24 801K
20260411T12Z_MSC_GDPS_AirTemp_IsbL-0600_LatLon0.15_PT048H.grib2 2026-04-11 16:24 895K
20260411T12Z_MSC_GDPS_AirTemp_IsbL-0650_LatLon0.15_PT048H.grib2 2026-04-11 16:24 920K
20260411T12Z_MSC_GDPS_AirTemp_IsbL-0700_LatLon0.15_PT048H.grib2 2026-04-11 16:24 956K
20260411T12Z_MSC_GDPS_AirTemp_IsbL-0750_LatLon0.15_PT048H.grib2 2026-04-11 16:24 1.0M
20260411T12Z_MSC_GDPS_AirTemp_IsbL-0800_LatLon0.15_PT048H.grib2 2026-04-11 16:24 1.1M
20260411T12Z_MSC_GDPS_AirTemp_IsbL-0850_LatLon0.15_PT048H.grib2 2026-04-11 16:24 1.1M
20260411T12Z_MSC_GDPS_AirTemp_IsbL-0875_LatLon0.15_PT048H.grib2 2026-04-11 16:24 1.2M
20260411T12Z_MSC_GDPS_AirTemp_IsbL-0900_LatLon0.15_PT048H.grib2 2026-04-11 16:24 1.1M
20260411T12Z_MSC_GDPS_AirTemp_IsbL-0925_LatLon0.15_PT048H.grib2 2026-04-11 16:24 1.1M
20260411T12Z_MSC_GDPS_AirTemp_IsbL-0950_LatLon0.15_PT048H.grib2 2026-04-11 16:24 1.1M
20260411T12Z_MSC_GDPS_AirTemp_IsbL-0970_LatLon0.15_PT048H.grib2 2026-04-11 16:24 1.1M
20260411T12Z_MSC_GDPS_AirTemp_IsbL-0985_LatLon0.15_PT048H.grib2 2026-04-11 16:24 1.1M
20260411T12Z_MSC_GDPS_AirTemp_IsbL-1000_LatLon0.15_PT048H.grib2 2026-04-11 16:24 1.1M
20260411T12Z_MSC_GDPS_AirTemp_IsbL-1015_LatLon0.15_PT048H.grib2 2026-04-11 16:24 1.1M
20260411T12Z_MSC_GDPS_Albedo_Sfc_LatLon0.15_PT048H.grib2 2026-04-11 16:24 245K
20260411T12Z_MSC_GDPS_CAPE_Sfc_LatLon0.15_PT048H.grib2 2026-04-11 16:24 3.8M
20260411T12Z_MSC_GDPS_CIN_Sfc_LatLon0.15_PT048H.grib2 2026-04-11 16:24 2.9M
20260411T12Z_MSC_GDPS_CloudWater_EAtm_LatLon0.15_PT048H.grib2 2026-04-11 16:24 528K
20260411T12Z_MSC_GDPS_ConvectivePrecip-Accum_Sfc_LatLon0.15_PT048H.grib2 2026-04-11 16:24 2.6M
20260411T12Z_MSC_GDPS_DewPointDepression_AGL-2m_LatLon0.15_PT048H.grib2 2026-04-11 16:24 745K
20260411T12Z_MSC_GDPS_DewPointDepression_IsbL-0010_LatLon0.15_PT048H.grib2 2026-04-11 16:24 1.0K
20260411T12Z_MSC_GDPS_DewPointDepression_IsbL-0020_LatLon0.15_PT048H.grib2 2026-04-11 16:24 46K
20260411T12Z_MSC_GDPS_DewPointDepression_IsbL-0030_LatLon0.15_PT048H.grib2 2026-04-11 16:24 93K
20260411T12Z_MSC_GDPS_DewPointDepression_IsbL-0050_LatLon0.15_PT048H.grib2 2026-04-11 16:24 347K
20260411T12Z_MSC_GDPS_DewPointDepression_IsbL-0100_LatLon0.15_PT048H.grib2 2026-04-11 16:24 373K
20260411T12Z_MSC_GDPS_DewPointDepression_IsbL-0150_LatLon0.15_PT048H.grib2 2026-04-11 16:24 450K
20260411T12Z_MSC_GDPS_DewPointDepression_IsbL-0175_LatLon0.15_PT048H.grib2 2026-04-11 16:24 519K
20260411T12Z_MSC_GDPS_DewPointDepression_IsbL-0200_LatLon0.15_PT048H.grib2 2026-04-11 16:24 620K
20260411T12Z_MSC_GDPS_DewPointDepression_IsbL-0225_LatLon0.15_PT048H.grib2 2026-04-11 16:24 756K
20260411T12Z_MSC_GDPS_DewPointDepression_IsbL-0250_LatLon0.15_PT048H.grib2 2026-04-11 16:24 863K
20260411T12Z_MSC_GDPS_DewPointDepression_IsbL-0275_LatLon0.15_PT048H.grib2 2026-04-11 16:24 888K
20260411T12Z_MSC_GDPS_DewPointDepression_IsbL-0300_LatLon0.15_PT048H.grib2 2026-04-11 16:24 927K
20260411T12Z_MSC_GDPS_DewPointDepression_IsbL-0350_LatLon0.15_PT048H.grib2 2026-04-11 16:24 962K
20260411T12Z_MSC_GDPS_DewPointDepression_IsbL-0400_LatLon0.15_PT048H.grib2 2026-04-11 16:24 1.0M
20260411T12Z_MSC_GDPS_DewPointDepression_IsbL-0450_LatLon0.15_PT048H.grib2 2026-04-11 16:24 1.0M
20260411T12Z_MSC_GDPS_DewPointDepression_IsbL-0500_LatLon0.15_PT048H.grib2 2026-04-11 16:24 1.0M
20260411T12Z_MSC_GDPS_DewPointDepression_IsbL-0550_LatLon0.15_PT048H.grib2 2026-04-11 16:24 1.0M
20260411T12Z_MSC_GDPS_DewPointDepression_IsbL-0600_LatLon0.15_PT048H.grib2 2026-04-11 16:24 1.0M
20260411T12Z_MSC_GDPS_DewPointDepression_IsbL-0650_LatLon0.15_PT048H.grib2 2026-04-11 16:24 1.1M
20260411T12Z_MSC_GDPS_DewPointDepression_IsbL-0700_LatLon0.15_PT048H.grib2 2026-04-11 16:24 1.1M
20260411T12Z_MSC_GDPS_DewPointDepression_IsbL-0750_LatLon0.15_PT048H.grib2 2026-04-11 16:24 1.1M
20260411T12Z_MSC_GDPS_DewPointDepression_IsbL-0800_LatLon0.15_PT048H.grib2 2026-04-11 16:24 1.2M
20260411T12Z_MSC_GDPS_DewPointDepression_IsbL-0850_LatLon0.15_PT048H.grib2 2026-04-11 16:24 1.2M
20260411T12Z_MSC_GDPS_DewPointDepression_IsbL-0875_LatLon0.15_PT048H.grib2 2026-04-11 16:24 1.1M
20260411T12Z_MSC_GDPS_DewPointDepression_IsbL-0900_LatLon0.15_PT048H.grib2 2026-04-11 16:24 1.1M
20260411T12Z_MSC_GDPS_DewPointDepression_IsbL-0925_LatLon0.15_PT048H.grib2 2026-04-11 16:24 1.0M
20260411T12Z_MSC_GDPS_DewPointDepression_IsbL-0950_LatLon0.15_PT048H.grib2 2026-04-11 16:24 1.0M
20260411T12Z_MSC_GDPS_DewPointDepression_IsbL-0970_LatLon0.15_PT048H.grib2 2026-04-11 16:24 1.0M
20260411T12Z_MSC_GDPS_DewPointDepression_IsbL-0985_LatLon0.15_PT048H.grib2 2026-04-11 16:24 1.0M
20260411T12Z_MSC_GDPS_DewPointDepression_IsbL-1000_LatLon0.15_PT048H.grib2 2026-04-11 16:24 967K
20260411T12Z_MSC_GDPS_DewPointDepression_IsbL-1015_LatLon0.15_PT048H.grib2 2026-04-11 16:24 905K
20260411T12Z_MSC_GDPS_DewPoint_AGL-2m_LatLon0.15_PT048H.grib2 2026-04-11 16:24 613K
20260411T12Z_MSC_GDPS_DownwardLongwaveRadiationFlux-Accum_Sfc_LatLon0.15_PT048H.grib2 2026-04-11 16:24 781K
20260411T12Z_MSC_GDPS_DownwardShortwaveRadiationFlux-Accum_NTAtm_LatLon0.15_PT048H.grib2 2026-04-11 16:24 251K
20260411T12Z_MSC_GDPS_DownwardShortwaveRadiationFlux-Accum_Sfc_LatLon0.15_PT048H.grib2 2026-04-11 16:24 1.0M
20260411T12Z_MSC_GDPS_FreezingRain-Accum12h_Sfc_LatLon0.15_PT048H.grib2 2026-04-11 16:24 60K
20260411T12Z_MSC_GDPS_FreezingRain-Accum1h_Sfc_LatLon0.15_PT048H.grib2 2026-04-11 16:24 16K
20260411T12Z_MSC_GDPS_FreezingRain-Accum24h_Sfc_LatLon0.15_PT048H.grib2 2026-04-11 16:24 87K
20260411T12Z_MSC_GDPS_FreezingRain-Accum3h_Sfc_LatLon0.15_PT048H.grib2 2026-04-11 16:24 23K
20260411T12Z_MSC_GDPS_FreezingRain-Accum6h_Sfc_LatLon0.15_PT048H.grib2 2026-04-11 16:24 37K
20260411T12Z_MSC_GDPS_FreezingRain-Accum_Sfc_LatLon0.15_PT048H.grib2 2026-04-11 16:24 177K
20260411T12Z_MSC_GDPS_GeopotentialHeight_IsbL-0001_LatLon0.15_PT048H.grib2 2026-04-11 16:24 540K
20260411T12Z_MSC_GDPS_GeopotentialHeight_IsbL-0005_LatLon0.15_PT048H.grib2 2026-04-11 16:24 445K
20260411T12Z_MSC_GDPS_GeopotentialHeight_IsbL-0010_LatLon0.15_PT048H.grib2 2026-04-11 16:24 583K
20260411T12Z_MSC_GDPS_GeopotentialHeight_IsbL-0020_LatLon0.15_PT048H.grib2 2026-04-11 16:24 584K
20260411T12Z_MSC_GDPS_GeopotentialHeight_IsbL-0030_LatLon0.15_PT048H.grib2 2026-04-11 16:24 588K
20260411T12Z_MSC_GDPS_GeopotentialHeight_IsbL-0050_LatLon0.15_PT048H.grib2 2026-04-11 16:24 514K
20260411T12Z_MSC_GDPS_GeopotentialHeight_IsbL-0100_LatLon0.15_PT048H.grib2 2026-04-11 16:24 621K
20260411T12Z_MSC_GDPS_GeopotentialHeight_IsbL-0150_LatLon0.15_PT048H.grib2 2026-04-11 16:24 640K
20260411T12Z_MSC_GDPS_GeopotentialHeight_IsbL-0175_LatLon0.15_PT048H.grib2 2026-04-11 16:24 642K
20260411T12Z_MSC_GDPS_GeopotentialHeight_IsbL-0200_LatLon0.15_PT048H.grib2 2026-04-11 16:24 646K
20260411T12Z_MSC_GDPS_GeopotentialHeight_IsbL-0225_LatLon0.15_PT048H.grib2 2026-04-11 16:24 649K
20260411T12Z_MSC_GDPS_GeopotentialHeight_IsbL-0250_LatLon0.15_PT048H.grib2 2026-04-11 16:24 651K
20260411T12Z_MSC_GDPS_GeopotentialHeight_IsbL-0275_LatLon0.15_PT048H.grib2 2026-04-11 16:24 648K
20260411T12Z_MSC_GDPS_GeopotentialHeight_IsbL-0300_LatLon0.15_PT048H.grib2 2026-04-11 16:24 645K
20260411T12Z_MSC_GDPS_GeopotentialHeight_IsbL-0350_LatLon0.15_PT048H.grib2 2026-04-11 16:24 636K
20260411T12Z_MSC_GDPS_GeopotentialHeight_IsbL-0400_LatLon0.15_PT048H.grib2 2026-04-11 16:24 623K
20260411T12Z_MSC_GDPS_GeopotentialHeight_IsbL-0450_LatLon0.15_PT048H.grib2 2026-04-11 16:24 543K
20260411T12Z_MSC_GDPS_GeopotentialHeight_IsbL-0500_LatLon0.15_PT048H.grib2 2026-04-11 16:24 531K
20260411T12Z_MSC_GDPS_GeopotentialHeight_IsbL-0550_LatLon0.15_PT048H.grib2 2026-04-11 16:24 525K
20260411T12Z_MSC_GDPS_GeopotentialHeight_IsbL-0600_LatLon0.15_PT048H.grib2 2026-04-11 16:24 690K
20260411T12Z_MSC_GDPS_GeopotentialHeight_IsbL-0650_LatLon0.15_PT048H.grib2 2026-04-11 16:24 689K
20260411T12Z_MSC_GDPS_GeopotentialHeight_IsbL-0700_LatLon0.15_PT048H.grib2 2026-04-11 16:24 686K
20260411T12Z_MSC_GDPS_GeopotentialHeight_IsbL-0750_LatLon0.15_PT048H.grib2 2026-04-11 16:24 696K
20260411T12Z_MSC_GDPS_GeopotentialHeight_IsbL-0800_LatLon0.15_PT048H.grib2 2026-04-11 16:24 705K
20260411T12Z_MSC_GDPS_GeopotentialHeight_IsbL-0850_LatLon0.15_PT048H.grib2 2026-04-11 16:24 710K
20260411T12Z_MSC_GDPS_GeopotentialHeight_IsbL-0875_LatLon0.15_PT048H.grib2 2026-04-11 16:24 715K
20260411T12Z_MSC_GDPS_GeopotentialHeight_IsbL-0900_LatLon0.15_PT048H.grib2 2026-04-11 16:24 725K
20260411T12Z_MSC_GDPS_GeopotentialHeight_IsbL-0925_LatLon0.15_PT048H.grib2 2026-04-11 16:24 732K
20260411T12Z_MSC_GDPS_GeopotentialHeight_IsbL-0950_LatLon0.15_PT048H.grib2 2026-04-11 16:24 737K
20260411T12Z_MSC_GDPS_GeopotentialHeight_IsbL-0970_LatLon0.15_PT048H.grib2 2026-04-11 16:24 748K
20260411T12Z_MSC_GDPS_GeopotentialHeight_IsbL-0985_LatLon0.15_PT048H.grib2 2026-04-11 16:24 762K
20260411T12Z_MSC_GDPS_GeopotentialHeight_IsbL-1000_LatLon0.15_PT048H.grib2 2026-04-11 16:24 782K
20260411T12Z_MSC_GDPS_GeopotentialHeight_IsbL-1015_LatLon0.15_PT048H.grib2 2026-04-11 16:24 613K
20260411T12Z_MSC_GDPS_Humidex_Sfc_LatLon0.15_PT048H.grib2 2026-04-11 16:24 5.3M
20260411T12Z_MSC_GDPS_IcePellets-Accum12h_Sfc_LatLon0.15_PT048H.grib2 2026-04-11 16:24 34K
20260411T12Z_MSC_GDPS_IcePellets-Accum1h_Sfc_LatLon0.15_PT048H.grib2 2026-04-11 16:24 13K
20260411T12Z_MSC_GDPS_IcePellets-Accum24h_Sfc_LatLon0.15_PT048H.grib2 2026-04-11 16:24 47K
20260411T12Z_MSC_GDPS_IcePellets-Accum3h_Sfc_LatLon0.15_PT048H.grib2 2026-04-11 16:24 18K
20260411T12Z_MSC_GDPS_IcePellets-Accum6h_Sfc_LatLon0.15_PT048H.grib2 2026-04-11 16:24 24K
20260411T12Z_MSC_GDPS_IcePellets-Accum_Sfc_LatLon0.15_PT048H.grib2 2026-04-11 16:24 73K
20260411T12Z_MSC_GDPS_KIndex_Sfc_LatLon0.15_PT048H.grib2 2026-04-11 16:24 6.5M
20260411T12Z_MSC_GDPS_LatentHeatNetFlux_Sfc_LatLon0.15_PT048H.grib2 2026-04-11 16:24 540K
20260411T12Z_MSC_GDPS_LiftedIndex-MU-VT_IsbL-0500_LatLon0.15_PT048H.grib2 2026-04-11 16:24 5.4M
20260411T12Z_MSC_GDPS_NetLongwaveRadiationFlux-Accum_Sfc_LatLon0.15_PT048H.grib2 2026-04-11 16:24 1.1M
20260411T12Z_MSC_GDPS_NetShortwaveRadiationFlux-Accum_Sfc_LatLon0.15_PT048H.grib2 2026-04-11 16:24 1.0M
20260411T12Z_MSC_GDPS_O3MixingRatio_LatLon0.15_PT048H.grib2 2026-04-11 17:05 2.0M
20260411T12Z_MSC_GDPS_O3_EAtm_LatLon0.15_PT048H.grib2 2026-04-11 17:05 2.1M
20260411T12Z_MSC_GDPS_PlanetaryBoundaryLayerHeight_Sfc_LatLon0.15_PT048H.grib2 2026-04-11 16:24 2.5M
20260411T12Z_MSC_GDPS_Precip-Accum12h_Sfc_LatLon0.15_PT048H.grib2 2026-04-11 16:24 4.0M
20260411T12Z_MSC_GDPS_Precip-Accum1h_Sfc_LatLon0.15_PT048H.grib2 2026-04-11 16:24 3.2M
20260411T12Z_MSC_GDPS_Precip-Accum24h_Sfc_LatLon0.15_PT048H.grib2 2026-04-11 16:24 4.5M
20260411T12Z_MSC_GDPS_Precip-Accum3h_Sfc_LatLon0.15_PT048H.grib2 2026-04-11 16:24 3.5M
20260411T12Z_MSC_GDPS_Precip-Accum6h_Sfc_LatLon0.15_PT048H.grib2 2026-04-11 16:24 3.8M
20260411T12Z_MSC_GDPS_Precip-Accum_Sfc_LatLon0.15_PT048H.grib2 2026-04-11 16:24 4.5M
20260411T12Z_MSC_GDPS_PrecipRate_Sfc_LatLon0.15_PT048H.grib2 2026-04-11 16:24 2.9M
20260411T12Z_MSC_GDPS_PrecipType-Instant_Sfc_LatLon0.15_PT048H.grib2 2026-04-11 16:24 1.5M
20260411T12Z_MSC_GDPS_Pressure_MSL_LatLon0.15_PT048H.grib2 2026-04-11 16:24 817K
20260411T12Z_MSC_GDPS_Pressure_PVU-1.5_LatLon0.15_PT048H.grib2 2026-04-11 16:24 5.8M
20260411T12Z_MSC_GDPS_Pressure_PVU-1_LatLon0.15_PT048H.grib2 2026-04-11 16:24 6.0M
20260411T12Z_MSC_GDPS_Pressure_PVU-2_LatLon0.15_PT048H.grib2 2026-04-11 16:24 5.6M
20260411T12Z_MSC_GDPS_Pressure_Sfc_LatLon0.15_PT048H.grib2 2026-04-11 16:24 1.1M
20260411T12Z_MSC_GDPS_RadiativeTemp_Sfc_LatLon0.15_PT048H.grib2 2026-04-11 16:24 675K
20260411T12Z_MSC_GDPS_Rain-Accum12h_Sfc_LatLon0.15_PT048H.grib2 2026-04-11 16:24 2.5M
20260411T12Z_MSC_GDPS_Rain-Accum1h_Sfc_LatLon0.15_PT048H.grib2 2026-04-11 16:24 1.6M
20260411T12Z_MSC_GDPS_Rain-Accum24h_Sfc_LatLon0.15_PT048H.grib2 2026-04-11 16:24 3.0M
20260411T12Z_MSC_GDPS_Rain-Accum3h_Sfc_LatLon0.15_PT048H.grib2 2026-04-11 16:24 1.6M
20260411T12Z_MSC_GDPS_Rain-Accum6h_Sfc_LatLon0.15_PT048H.grib2 2026-04-11 16:24 2.4M
20260411T12Z_MSC_GDPS_Rain-Accum_Sfc_LatLon0.15_PT048H.grib2 2026-04-11 16:24 3.3M
20260411T12Z_MSC_GDPS_RelativeHumidity_AGL-2m_LatLon0.15_PT048H.grib2 2026-04-11 16:24 1.0M
20260411T12Z_MSC_GDPS_RelativeHumidity_IsbL-0010_LatLon0.15_PT048H.grib2 2026-04-11 16:24 241K
20260411T12Z_MSC_GDPS_RelativeHumidity_IsbL-0020_LatLon0.15_PT048H.grib2 2026-04-11 16:24 392K
20260411T12Z_MSC_GDPS_RelativeHumidity_IsbL-0030_LatLon0.15_PT048H.grib2 2026-04-11 16:24 532K
20260411T12Z_MSC_GDPS_RelativeHumidity_IsbL-0050_LatLon0.15_PT048H.grib2 2026-04-11 16:24 324K
20260411T12Z_MSC_GDPS_RelativeHumidity_IsbL-0100_LatLon0.15_PT048H.grib2 2026-04-11 16:24 497K
20260411T12Z_MSC_GDPS_RelativeHumidity_IsbL-0150_LatLon0.15_PT048H.grib2 2026-04-11 16:24 654K
20260411T12Z_MSC_GDPS_RelativeHumidity_IsbL-0175_LatLon0.15_PT048H.grib2 2026-04-11 16:24 760K
20260411T12Z_MSC_GDPS_RelativeHumidity_IsbL-0200_LatLon0.15_PT048H.grib2 2026-04-11 16:24 678K
20260411T12Z_MSC_GDPS_RelativeHumidity_IsbL-0225_LatLon0.15_PT048H.grib2 2026-04-11 16:24 771K
20260411T12Z_MSC_GDPS_RelativeHumidity_IsbL-0250_LatLon0.15_PT048H.grib2 2026-04-11 16:24 853K
20260411T12Z_MSC_GDPS_RelativeHumidity_IsbL-0275_LatLon0.15_PT048H.grib2 2026-04-11 16:24 875K
20260411T12Z_MSC_GDPS_RelativeHumidity_IsbL-0300_LatLon0.15_PT048H.grib2 2026-04-11 16:24 921K
20260411T12Z_MSC_GDPS_RelativeHumidity_IsbL-0350_LatLon0.15_PT048H.grib2 2026-04-11 16:24 950K
20260411T12Z_MSC_GDPS_RelativeHumidity_IsbL-0400_LatLon0.15_PT048H.grib2 2026-04-11 16:24 971K
20260411T12Z_MSC_GDPS_RelativeHumidity_IsbL-0450_LatLon0.15_PT048H.grib2 2026-04-11 16:24 1.0M
20260411T12Z_MSC_GDPS_RelativeHumidity_IsbL-0500_LatLon0.15_PT048H.grib2 2026-04-11 16:24 1.0M
20260411T12Z_MSC_GDPS_RelativeHumidity_IsbL-0550_LatLon0.15_PT048H.grib2 2026-04-11 16:24 1.1M
20260411T12Z_MSC_GDPS_RelativeHumidity_IsbL-0600_LatLon0.15_PT048H.grib2 2026-04-11 16:24 1.1M
20260411T12Z_MSC_GDPS_RelativeHumidity_IsbL-0650_LatLon0.15_PT048H.grib2 2026-04-11 16:24 1.1M
20260411T12Z_MSC_GDPS_RelativeHumidity_IsbL-0700_LatLon0.15_PT048H.grib2 2026-04-11 16:24 1.1M
20260411T12Z_MSC_GDPS_RelativeHumidity_IsbL-0750_LatLon0.15_PT048H.grib2 2026-04-11 16:24 1.2M
20260411T12Z_MSC_GDPS_RelativeHumidity_IsbL-0800_LatLon0.15_PT048H.grib2 2026-04-11 16:24 1.2M
20260411T12Z_MSC_GDPS_RelativeHumidity_IsbL-0850_LatLon0.15_PT048H.grib2 2026-04-11 16:24 1.3M
20260411T12Z_MSC_GDPS_RelativeHumidity_IsbL-0875_LatLon0.15_PT048H.grib2 2026-04-11 16:24 1.3M
20260411T12Z_MSC_GDPS_RelativeHumidity_IsbL-0900_LatLon0.15_PT048H.grib2 2026-04-11 16:24 1.3M
20260411T12Z_MSC_GDPS_RelativeHumidity_IsbL-0925_LatLon0.15_PT048H.grib2 2026-04-11 16:24 1.2M
20260411T12Z_MSC_GDPS_RelativeHumidity_IsbL-0950_LatLon0.15_PT048H.grib2 2026-04-11 16:24 1.2M
20260411T12Z_MSC_GDPS_RelativeHumidity_IsbL-0970_LatLon0.15_PT048H.grib2 2026-04-11 16:24 1.2M
20260411T12Z_MSC_GDPS_RelativeHumidity_IsbL-0985_LatLon0.15_PT048H.grib2 2026-04-11 16:24 1.1M
20260411T12Z_MSC_GDPS_RelativeHumidity_IsbL-1000_LatLon0.15_PT048H.grib2 2026-04-11 16:24 1.1M
20260411T12Z_MSC_GDPS_RelativeHumidity_IsbL-1015_LatLon0.15_PT048H.grib2 2026-04-11 16:24 1.0M
20260411T12Z_MSC_GDPS_RelativeVorticity_IsbL-0200_LatLon0.15_PT048H.grib2 2026-04-11 16:24 1.2M
20260411T12Z_MSC_GDPS_RelativeVorticity_IsbL-0250_LatLon0.15_PT048H.grib2 2026-04-11 16:24 1.3M
20260411T12Z_MSC_GDPS_RelativeVorticity_IsbL-0500_LatLon0.15_PT048H.grib2 2026-04-11 16:24 1.4M
20260411T12Z_MSC_GDPS_RelativeVorticity_IsbL-0700_LatLon0.15_PT048H.grib2 2026-04-11 16:24 1.3M
20260411T12Z_MSC_GDPS_RelativeVorticity_IsbL-0850_LatLon0.15_PT048H.grib2 2026-04-11 16:24 1.6M
20260411T12Z_MSC_GDPS_Runoff-Accum_Sfc_LatLon0.15_PT048H.grib2 2026-04-11 16:24 135K
20260411T12Z_MSC_GDPS_SensibleHeatNetFlux_Sfc_LatLon0.15_PT048H.grib2 2026-04-11 16:24 641K
20260411T12Z_MSC_GDPS_ShowalterIndex_IsbL-0500_LatLon0.15_PT048H.grib2 2026-04-11 16:24 6.2M
20260411T12Z_MSC_GDPS_Snow-Accum12h_Sfc_LatLon0.15_PT048H.grib2 2026-04-11 16:24 1.3M
20260411T12Z_MSC_GDPS_Snow-Accum1h_Sfc_LatLon0.15_PT048H.grib2 2026-04-11 16:24 834K
20260411T12Z_MSC_GDPS_Snow-Accum24h_Sfc_LatLon0.15_PT048H.grib2 2026-04-11 16:24 1.4M
20260411T12Z_MSC_GDPS_Snow-Accum3h_Sfc_LatLon0.15_PT048H.grib2 2026-04-11 16:24 878K
20260411T12Z_MSC_GDPS_Snow-Accum6h_Sfc_LatLon0.15_PT048H.grib2 2026-04-11 16:24 1.2M
20260411T12Z_MSC_GDPS_Snow-Accum_Sfc_LatLon0.15_PT048H.grib2 2026-04-11 16:24 1.8M
20260411T12Z_MSC_GDPS_SnowDensity_Sfc_LatLon0.15_PT048H.grib2 2026-04-11 16:24 268K
20260411T12Z_MSC_GDPS_SnowDepth_Sfc_LatLon0.15_PT048H.grib2 2026-04-11 16:24 1.8M
20260411T12Z_MSC_GDPS_SoilTemp_DBS-0to10cm_LatLon0.15_PT048H.grib2 2026-04-11 16:24 502K
20260411T12Z_MSC_GDPS_SoilTemp_Sfc_LatLon0.15_PT048H.grib2 2026-04-11 16:24 570K
20260411T12Z_MSC_GDPS_SoilVolumetricIceContent_Sfc_LatLon0.15_PT048H.grib2 2026-04-11 16:24 228K
20260411T12Z_MSC_GDPS_SoilVolumetricWaterContent_DBS-0to10cm_LatLon0.15_PT048H.grib2 2026-04-11 16:24 551K
20260411T12Z_MSC_GDPS_SoilVolumetricWaterContent_DBS-0to1cm_LatLon0.15_PT048H.grib2 2026-04-11 16:24 649K
20260411T12Z_MSC_GDPS_SpecificHumidity_AGL-120m_LatLon0.15_PT048H.grib2 2026-04-11 16:24 1.1M
20260411T12Z_MSC_GDPS_SpecificHumidity_AGL-2m_LatLon0.15_PT048H.grib2 2026-04-11 16:24 1.2M
20260411T12Z_MSC_GDPS_SpecificHumidity_AGL-40m_LatLon0.15_PT048H.grib2 2026-04-11 16:24 1.1M
20260411T12Z_MSC_GDPS_SpecificHumidity_AGL-80m_LatLon0.15_PT048H.grib2 2026-04-11 16:24 1.1M
20260411T12Z_MSC_GDPS_SpecificHumidity_IsbL-0001_LatLon0.15_PT048H.grib2 2026-04-11 16:24 1.2M
20260411T12Z_MSC_GDPS_SpecificHumidity_IsbL-0005_LatLon0.15_PT048H.grib2 2026-04-11 16:24 1.2M
20260411T12Z_MSC_GDPS_SpecificHumidity_IsbL-0010_LatLon0.15_PT048H.grib2 2026-04-11 16:24 1.3M
20260411T12Z_MSC_GDPS_SpecificHumidity_IsbL-0020_LatLon0.15_PT048H.grib2 2026-04-11 16:24 1.4M
20260411T12Z_MSC_GDPS_SpecificHumidity_IsbL-0030_LatLon0.15_PT048H.grib2 2026-04-11 16:24 1.4M
20260411T12Z_MSC_GDPS_SpecificHumidity_IsbL-0050_LatLon0.15_PT048H.grib2 2026-04-11 16:24 1.4M
20260411T12Z_MSC_GDPS_SpecificHumidity_IsbL-0100_LatLon0.15_PT048H.grib2 2026-04-11 16:24 1.3M
20260411T12Z_MSC_GDPS_SpecificHumidity_IsbL-0150_LatLon0.15_PT048H.grib2 2026-04-11 16:24 1.0M
20260411T12Z_MSC_GDPS_SpecificHumidity_IsbL-0175_LatLon0.15_PT048H.grib2 2026-04-11 16:24 1.0M
20260411T12Z_MSC_GDPS_SpecificHumidity_IsbL-0200_LatLon0.15_PT048H.grib2 2026-04-11 16:24 1.0M
20260411T12Z_MSC_GDPS_SpecificHumidity_IsbL-0225_LatLon0.15_PT048H.grib2 2026-04-11 16:24 1.2M
20260411T12Z_MSC_GDPS_SpecificHumidity_IsbL-0250_LatLon0.15_PT048H.grib2 2026-04-11 16:24 1.2M
20260411T12Z_MSC_GDPS_SpecificHumidity_IsbL-0275_LatLon0.15_PT048H.grib2 2026-04-11 16:24 1.1M
20260411T12Z_MSC_GDPS_SpecificHumidity_IsbL-0300_LatLon0.15_PT048H.grib2 2026-04-11 16:24 1.2M
20260411T12Z_MSC_GDPS_SpecificHumidity_IsbL-0350_LatLon0.15_PT048H.grib2 2026-04-11 16:24 1.2M
20260411T12Z_MSC_GDPS_SpecificHumidity_IsbL-0400_LatLon0.15_PT048H.grib2 2026-04-11 16:24 1.4M
20260411T12Z_MSC_GDPS_SpecificHumidity_IsbL-0450_LatLon0.15_PT048H.grib2 2026-04-11 16:24 1.3M
20260411T12Z_MSC_GDPS_SpecificHumidity_IsbL-0500_LatLon0.15_PT048H.grib2 2026-04-11 16:24 1.5M
20260411T12Z_MSC_GDPS_SpecificHumidity_IsbL-0550_LatLon0.15_PT048H.grib2 2026-04-11 16:24 1.3M
20260411T12Z_MSC_GDPS_SpecificHumidity_IsbL-0600_LatLon0.15_PT048H.grib2 2026-04-11 16:24 1.4M
20260411T12Z_MSC_GDPS_SpecificHumidity_IsbL-0650_LatLon0.15_PT048H.grib2 2026-04-11 16:24 1.5M
20260411T12Z_MSC_GDPS_SpecificHumidity_IsbL-0700_LatLon0.15_PT048H.grib2 2026-04-11 16:24 1.6M
20260411T12Z_MSC_GDPS_SpecificHumidity_IsbL-0750_LatLon0.15_PT048H.grib2 2026-04-11 16:24 1.7M
20260411T12Z_MSC_GDPS_SpecificHumidity_IsbL-0800_LatLon0.15_PT048H.grib2 2026-04-11 16:24 1.8M
20260411T12Z_MSC_GDPS_SpecificHumidity_IsbL-0850_LatLon0.15_PT048H.grib2 2026-04-11 16:24 1.9M
20260411T12Z_MSC_GDPS_SpecificHumidity_IsbL-0875_LatLon0.15_PT048H.grib2 2026-04-11 16:24 1.9M
20260411T12Z_MSC_GDPS_SpecificHumidity_IsbL-0900_LatLon0.15_PT048H.grib2 2026-04-11 16:24 1.6M
20260411T12Z_MSC_GDPS_SpecificHumidity_IsbL-0925_LatLon0.15_PT048H.grib2 2026-04-11 16:24 1.6M
20260411T12Z_MSC_GDPS_SpecificHumidity_IsbL-0950_LatLon0.15_PT048H.grib2 2026-04-11 16:24 1.5M
20260411T12Z_MSC_GDPS_SpecificHumidity_IsbL-0970_LatLon0.15_PT048H.grib2 2026-04-11 16:24 1.5M
20260411T12Z_MSC_GDPS_SpecificHumidity_IsbL-0985_LatLon0.15_PT048H.grib2 2026-04-11 16:24 1.5M
20260411T12Z_MSC_GDPS_SpecificHumidity_IsbL-1000_LatLon0.15_PT048H.grib2 2026-04-11 16:24 1.5M
20260411T12Z_MSC_GDPS_SpecificHumidity_IsbL-1015_LatLon0.15_PT048H.grib2 2026-04-11 16:24 1.4M
20260411T12Z_MSC_GDPS_SpecificHumidity_Sfc_LatLon0.15_PT048H.grib2 2026-04-11 16:24 666K
20260411T12Z_MSC_GDPS_Thickness_IsbL-0850to0700_LatLon0.15_PT048H.grib2 2026-04-11 16:24 471K
20260411T12Z_MSC_GDPS_Thickness_IsbL-1000to0500_LatLon0.15_PT048H.grib2 2026-04-11 16:24 375K
20260411T12Z_MSC_GDPS_Thickness_IsbL-1000to0850_LatLon0.15_PT048H.grib2 2026-04-11 16:24 487K
20260411T12Z_MSC_GDPS_TotalCloudCover_Sfc_LatLon0.15_PT048H.grib2 2026-04-11 16:24 820K
20260411T12Z_MSC_GDPS_TotalTotalsIndex_Sfc_LatLon0.15_PT048H.grib2 2026-04-11 16:24 6.2M
20260411T12Z_MSC_GDPS_UVIndex-ClearSky_Sfc_LatLon0.15_PT048H.grib2 2026-04-11 17:05 1.0M
20260411T12Z_MSC_GDPS_UVIndex_Sfc_LatLon0.15_PT048H.grib2 2026-04-11 17:05 1.4M
20260411T12Z_MSC_GDPS_UpwardLongwaveRadiationFlux_NTAtm_LatLon0.15_PT048H.grib2 2026-04-11 16:24 830K
20260411T12Z_MSC_GDPS_VerticalVelocity_IsbL-0200_LatLon0.15_PT048H.grib2 2026-04-11 16:24 934K
20260411T12Z_MSC_GDPS_VerticalVelocity_IsbL-0250_LatLon0.15_PT048H.grib2 2026-04-11 16:24 1.1M
20260411T12Z_MSC_GDPS_VerticalVelocity_IsbL-0500_LatLon0.15_PT048H.grib2 2026-04-11 16:24 1.0M
20260411T12Z_MSC_GDPS_VerticalVelocity_IsbL-0600_LatLon0.15_PT048H.grib2 2026-04-11 16:24 1.1M
20260411T12Z_MSC_GDPS_VerticalVelocity_IsbL-0700_LatLon0.15_PT048H.grib2 2026-04-11 16:24 1.2M
20260411T12Z_MSC_GDPS_VerticalVelocity_IsbL-0850_LatLon0.15_PT048H.grib2 2026-04-11 16:24 1.3M
20260411T12Z_MSC_GDPS_WindChill_Sfc_LatLon0.15_PT048H.grib2 2026-04-11 16:24 5.4M
20260411T12Z_MSC_GDPS_WindDir_AGL-10m_LatLon0.15_PT048H.grib2 2026-04-11 16:24 1.3M
20260411T12Z_MSC_GDPS_WindDir_AGL-120m_LatLon0.15_PT048H.grib2 2026-04-11 16:24 1.3M
20260411T12Z_MSC_GDPS_WindDir_AGL-40m_LatLon0.15_PT048H.grib2 2026-04-11 16:24 1.4M
20260411T12Z_MSC_GDPS_WindDir_AGL-80m_LatLon0.15_PT048H.grib2 2026-04-11 16:24 1.4M
20260411T12Z_MSC_GDPS_WindDir_IsbL-0001_LatLon0.15_PT048H.grib2 2026-04-11 16:24 624K
20260411T12Z_MSC_GDPS_WindDir_IsbL-0005_LatLon0.15_PT048H.grib2 2026-04-11 16:24 769K
20260411T12Z_MSC_GDPS_WindDir_IsbL-0010_LatLon0.15_PT048H.grib2 2026-04-11 16:24 853K
20260411T12Z_MSC_GDPS_WindDir_IsbL-0020_LatLon0.15_PT048H.grib2 2026-04-11 16:24 925K
20260411T12Z_MSC_GDPS_WindDir_IsbL-0030_LatLon0.15_PT048H.grib2 2026-04-11 16:24 893K
20260411T12Z_MSC_GDPS_WindDir_IsbL-0050_LatLon0.15_PT048H.grib2 2026-04-11 16:24 950K
20260411T12Z_MSC_GDPS_WindDir_IsbL-0100_LatLon0.15_PT048H.grib2 2026-04-11 16:24 1.0M
20260411T12Z_MSC_GDPS_WindDir_IsbL-0150_LatLon0.15_PT048H.grib2 2026-04-11 16:24 1.0M
20260411T12Z_MSC_GDPS_WindDir_IsbL-0175_LatLon0.15_PT048H.grib2 2026-04-11 16:24 1.0M
20260411T12Z_MSC_GDPS_WindDir_IsbL-0200_LatLon0.15_PT048H.grib2 2026-04-11 16:24 1.1M
20260411T12Z_MSC_GDPS_WindDir_IsbL-0225_LatLon0.15_PT048H.grib2 2026-04-11 16:24 1.1M
20260411T12Z_MSC_GDPS_WindDir_IsbL-0250_LatLon0.15_PT048H.grib2 2026-04-11 16:24 1.1M
20260411T12Z_MSC_GDPS_WindDir_IsbL-0275_LatLon0.15_PT048H.grib2 2026-04-11 16:24 1.2M
20260411T12Z_MSC_GDPS_WindDir_IsbL-0300_LatLon0.15_PT048H.grib2 2026-04-11 16:24 1.2M
20260411T12Z_MSC_GDPS_WindDir_IsbL-0350_LatLon0.15_PT048H.grib2 2026-04-11 16:24 1.2M
20260411T12Z_MSC_GDPS_WindDir_IsbL-0400_LatLon0.15_PT048H.grib2 2026-04-11 16:24 1.3M
20260411T12Z_MSC_GDPS_WindDir_IsbL-0450_LatLon0.15_PT048H.grib2 2026-04-11 16:24 1.3M
20260411T12Z_MSC_GDPS_WindDir_IsbL-0500_LatLon0.15_PT048H.grib2 2026-04-11 16:24 1.3M
20260411T12Z_MSC_GDPS_WindDir_IsbL-0550_LatLon0.15_PT048H.grib2 2026-04-11 16:24 1.4M
20260411T12Z_MSC_GDPS_WindDir_IsbL-0600_LatLon0.15_PT048H.grib2 2026-04-11 16:24 1.4M
20260411T12Z_MSC_GDPS_WindDir_IsbL-0650_LatLon0.15_PT048H.grib2 2026-04-11 16:24 1.5M
20260411T12Z_MSC_GDPS_WindDir_IsbL-0700_LatLon0.15_PT048H.grib2 2026-04-11 16:24 1.6M
20260411T12Z_MSC_GDPS_WindDir_IsbL-0750_LatLon0.15_PT048H.grib2 2026-04-11 16:24 1.7M
20260411T12Z_MSC_GDPS_WindDir_IsbL-0800_LatLon0.15_PT048H.grib2 2026-04-11 16:24 1.8M
20260411T12Z_MSC_GDPS_WindDir_IsbL-0850_LatLon0.15_PT048H.grib2 2026-04-11 16:24 1.9M
20260411T12Z_MSC_GDPS_WindDir_IsbL-0875_LatLon0.15_PT048H.grib2 2026-04-11 16:24 1.9M
20260411T12Z_MSC_GDPS_WindDir_IsbL-0900_LatLon0.15_PT048H.grib2 2026-04-11 16:24 1.9M
20260411T12Z_MSC_GDPS_WindDir_IsbL-0925_LatLon0.15_PT048H.grib2 2026-04-11 16:24 2.0M
20260411T12Z_MSC_GDPS_WindDir_IsbL-0950_LatLon0.15_PT048H.grib2 2026-04-11 16:24 2.0M
20260411T12Z_MSC_GDPS_WindDir_IsbL-0970_LatLon0.15_PT048H.grib2 2026-04-11 16:24 2.0M
20260411T12Z_MSC_GDPS_WindDir_IsbL-0985_LatLon0.15_PT048H.grib2 2026-04-11 16:24 2.0M
20260411T12Z_MSC_GDPS_WindDir_IsbL-1000_LatLon0.15_PT048H.grib2 2026-04-11 16:24 2.0M
20260411T12Z_MSC_GDPS_WindDir_IsbL-1015_LatLon0.15_PT048H.grib2 2026-04-11 16:24 2.0M
20260411T12Z_MSC_GDPS_WindGust-Max_AGL-10m_LatLon0.15_PT048H.grib2 2026-04-11 16:24 2.2M
20260411T12Z_MSC_GDPS_WindGust-Min_AGL-10m_LatLon0.15_PT048H.grib2 2026-04-11 16:24 2.2M
20260411T12Z_MSC_GDPS_WindGust_AGL-10m_LatLon0.15_PT048H.grib2 2026-04-11 16:24 2.2M
20260411T12Z_MSC_GDPS_WindSpeed_AGL-10m_LatLon0.15_PT048H.grib2 2026-04-11 16:24 1.1M
20260411T12Z_MSC_GDPS_WindSpeed_AGL-120m_LatLon0.15_PT048H.grib2 2026-04-11 16:24 1.2M
20260411T12Z_MSC_GDPS_WindSpeed_AGL-40m_LatLon0.15_PT048H.grib2 2026-04-11 16:24 1.2M
20260411T12Z_MSC_GDPS_WindSpeed_AGL-80m_LatLon0.15_PT048H.grib2 2026-04-11 16:24 1.2M
20260411T12Z_MSC_GDPS_WindSpeed_IsbL-0001_LatLon0.15_PT048H.grib2 2026-04-11 16:24 629K
20260411T12Z_MSC_GDPS_WindSpeed_IsbL-0005_LatLon0.15_PT048H.grib2 2026-04-11 16:24 606K
20260411T12Z_MSC_GDPS_WindSpeed_IsbL-0010_LatLon0.15_PT048H.grib2 2026-04-11 16:24 630K
20260411T12Z_MSC_GDPS_WindSpeed_IsbL-0020_LatLon0.15_PT048H.grib2 2026-04-11 16:24 871K
20260411T12Z_MSC_GDPS_WindSpeed_IsbL-0030_LatLon0.15_PT048H.grib2 2026-04-11 16:24 861K
20260411T12Z_MSC_GDPS_WindSpeed_IsbL-0050_LatLon0.15_PT048H.grib2 2026-04-11 16:24 1.0M
20260411T12Z_MSC_GDPS_WindSpeed_IsbL-0100_LatLon0.15_PT048H.grib2 2026-04-11 16:24 1.1M
20260411T12Z_MSC_GDPS_WindSpeed_IsbL-0150_LatLon0.15_PT048H.grib2 2026-04-11 16:24 1.0M
20260411T12Z_MSC_GDPS_WindSpeed_IsbL-0175_LatLon0.15_PT048H.grib2 2026-04-11 16:24 1.0M
20260411T12Z_MSC_GDPS_WindSpeed_IsbL-0200_LatLon0.15_PT048H.grib2 2026-04-11 16:24 1.1M
20260411T12Z_MSC_GDPS_WindSpeed_IsbL-0225_LatLon0.15_PT048H.grib2 2026-04-11 16:24 1.1M
20260411T12Z_MSC_GDPS_WindSpeed_IsbL-0250_LatLon0.15_PT048H.grib2 2026-04-11 16:24 1.1M
20260411T12Z_MSC_GDPS_WindSpeed_IsbL-0275_LatLon0.15_PT048H.grib2 2026-04-11 16:24 1.1M
20260411T12Z_MSC_GDPS_WindSpeed_IsbL-0300_LatLon0.15_PT048H.grib2 2026-04-11 16:24 1.1M
20260411T12Z_MSC_GDPS_WindSpeed_IsbL-0350_LatLon0.15_PT048H.grib2 2026-04-11 16:24 1.1M
20260411T12Z_MSC_GDPS_WindSpeed_IsbL-0400_LatLon0.15_PT048H.grib2 2026-04-11 16:24 1.1M
20260411T12Z_MSC_GDPS_WindSpeed_IsbL-0450_LatLon0.15_PT048H.grib2 2026-04-11 16:24 1.1M
20260411T12Z_MSC_GDPS_WindSpeed_IsbL-0500_LatLon0.15_PT048H.grib2 2026-04-11 16:24 1.1M
20260411T12Z_MSC_GDPS_WindSpeed_IsbL-0550_LatLon0.15_PT048H.grib2 2026-04-11 16:24 1.1M
20260411T12Z_MSC_GDPS_WindSpeed_IsbL-0600_LatLon0.15_PT048H.grib2 2026-04-11 16:24 1.1M
20260411T12Z_MSC_GDPS_WindSpeed_IsbL-0650_LatLon0.15_PT048H.grib2 2026-04-11 16:24 1.2M
20260411T12Z_MSC_GDPS_WindSpeed_IsbL-0700_LatLon0.15_PT048H.grib2 2026-04-11 16:24 1.5M
20260411T12Z_MSC_GDPS_WindSpeed_IsbL-0750_LatLon0.15_PT048H.grib2 2026-04-11 16:24 1.5M
20260411T12Z_MSC_GDPS_WindSpeed_IsbL-0800_LatLon0.15_PT048H.grib2 2026-04-11 16:24 1.6M
20260411T12Z_MSC_GDPS_WindSpeed_IsbL-0850_LatLon0.15_PT048H.grib2 2026-04-11 16:24 1.7M
20260411T12Z_MSC_GDPS_WindSpeed_IsbL-0875_LatLon0.15_PT048H.grib2 2026-04-11 16:24 1.8M
20260411T12Z_MSC_GDPS_WindSpeed_IsbL-0900_LatLon0.15_PT048H.grib2 2026-04-11 16:24 1.8M
20260411T12Z_MSC_GDPS_WindSpeed_IsbL-0925_LatLon0.15_PT048H.grib2 2026-04-11 16:24 1.9M
20260411T12Z_MSC_GDPS_WindSpeed_IsbL-0950_LatLon0.15_PT048H.grib2 2026-04-11 16:24 1.9M
20260411T12Z_MSC_GDPS_WindSpeed_IsbL-0970_LatLon0.15_PT048H.grib2 2026-04-11 16:24 1.9M
20260411T12Z_MSC_GDPS_WindSpeed_IsbL-0985_LatLon0.15_PT048H.grib2 2026-04-11 16:24 1.9M
20260411T12Z_MSC_GDPS_WindSpeed_IsbL-1000_LatLon0.15_PT048H.grib2 2026-04-11 16:24 1.9M
20260411T12Z_MSC_GDPS_WindSpeed_IsbL-1015_LatLon0.15_PT048H.grib2 2026-04-11 16:24 1.8M
20260411T12Z_MSC_GDPS_WindU_AGL-10m_LatLon0.15_PT048H.grib2 2026-04-11 16:24 1.3M
20260411T12Z_MSC_GDPS_WindU_AGL-120m_LatLon0.15_PT048H.grib2 2026-04-11 16:24 1.0M
20260411T12Z_MSC_GDPS_WindU_AGL-40m_LatLon0.15_PT048H.grib2 2026-04-11 16:24 961K
20260411T12Z_MSC_GDPS_WindU_AGL-80m_LatLon0.15_PT048H.grib2 2026-04-11 16:24 1.0M
20260411T12Z_MSC_GDPS_WindU_IsbL-0001_LatLon0.15_PT048H.grib2 2026-04-11 16:24 634K
20260411T12Z_MSC_GDPS_WindU_IsbL-0005_LatLon0.15_PT048H.grib2 2026-04-11 16:24 689K
20260411T12Z_MSC_GDPS_WindU_IsbL-0010_LatLon0.15_PT048H.grib2 2026-04-11 16:24 705K
20260411T12Z_MSC_GDPS_WindU_IsbL-0020_LatLon0.15_PT048H.grib2 2026-04-11 16:24 669K
20260411T12Z_MSC_GDPS_WindU_IsbL-0030_LatLon0.15_PT048H.grib2 2026-04-11 16:24 739K
20260411T12Z_MSC_GDPS_WindU_IsbL-0050_LatLon0.15_PT048H.grib2 2026-04-11 16:24 704K
20260411T12Z_MSC_GDPS_WindU_IsbL-0100_LatLon0.15_PT048H.grib2 2026-04-11 16:24 932K
20260411T12Z_MSC_GDPS_WindU_IsbL-0150_LatLon0.15_PT048H.grib2 2026-04-11 16:24 1.0M
20260411T12Z_MSC_GDPS_WindU_IsbL-0175_LatLon0.15_PT048H.grib2 2026-04-11 16:24 815K
20260411T12Z_MSC_GDPS_WindU_IsbL-0200_LatLon0.15_PT048H.grib2 2026-04-11 16:24 845K
20260411T12Z_MSC_GDPS_WindU_IsbL-0225_LatLon0.15_PT048H.grib2 2026-04-11 16:24 854K
20260411T12Z_MSC_GDPS_WindU_IsbL-0250_LatLon0.15_PT048H.grib2 2026-04-11 16:24 854K
20260411T12Z_MSC_GDPS_WindU_IsbL-0275_LatLon0.15_PT048H.grib2 2026-04-11 16:24 881K
20260411T12Z_MSC_GDPS_WindU_IsbL-0300_LatLon0.15_PT048H.grib2 2026-04-11 16:24 872K
20260411T12Z_MSC_GDPS_WindU_IsbL-0350_LatLon0.15_PT048H.grib2 2026-04-11 16:24 888K
20260411T12Z_MSC_GDPS_WindU_IsbL-0400_LatLon0.15_PT048H.grib2 2026-04-11 16:24 889K
20260411T12Z_MSC_GDPS_WindU_IsbL-0450_LatLon0.15_PT048H.grib2 2026-04-11 16:24 892K
20260411T12Z_MSC_GDPS_WindU_IsbL-0500_LatLon0.15_PT048H.grib2 2026-04-11 16:24 896K
20260411T12Z_MSC_GDPS_WindU_IsbL-0550_LatLon0.15_PT048H.grib2 2026-04-11 16:24 1.1M
20260411T12Z_MSC_GDPS_WindU_IsbL-0600_LatLon0.15_PT048H.grib2 2026-04-11 16:24 1.1M
20260411T12Z_MSC_GDPS_WindU_IsbL-0650_LatLon0.15_PT048H.grib2 2026-04-11 16:24 1.2M
20260411T12Z_MSC_GDPS_WindU_IsbL-0700_LatLon0.15_PT048H.grib2 2026-04-11 16:24 1.2M
20260411T12Z_MSC_GDPS_WindU_IsbL-0750_LatLon0.15_PT048H.grib2 2026-04-11 16:24 1.3M
20260411T12Z_MSC_GDPS_WindU_IsbL-0800_LatLon0.15_PT048H.grib2 2026-04-11 16:24 1.3M
20260411T12Z_MSC_GDPS_WindU_IsbL-0850_LatLon0.15_PT048H.grib2 2026-04-11 16:24 1.4M
20260411T12Z_MSC_GDPS_WindU_IsbL-0875_LatLon0.15_PT048H.grib2 2026-04-11 16:24 1.4M
20260411T12Z_MSC_GDPS_WindU_IsbL-0900_LatLon0.15_PT048H.grib2 2026-04-11 16:24 1.5M
20260411T12Z_MSC_GDPS_WindU_IsbL-0925_LatLon0.15_PT048H.grib2 2026-04-11 16:24 1.4M
20260411T12Z_MSC_GDPS_WindU_IsbL-0950_LatLon0.15_PT048H.grib2 2026-04-11 16:24 1.4M
20260411T12Z_MSC_GDPS_WindU_IsbL-0970_LatLon0.15_PT048H.grib2 2026-04-11 16:24 1.4M
20260411T12Z_MSC_GDPS_WindU_IsbL-0985_LatLon0.15_PT048H.grib2 2026-04-11 16:24 1.4M
20260411T12Z_MSC_GDPS_WindU_IsbL-1000_LatLon0.15_PT048H.grib2 2026-04-11 16:24 1.4M
20260411T12Z_MSC_GDPS_WindU_IsbL-1015_LatLon0.15_PT048H.grib2 2026-04-11 16:24 1.3M
20260411T12Z_MSC_GDPS_WindV_AGL-10m_LatLon0.15_PT048H.grib2 2026-04-11 16:24 1.3M
20260411T12Z_MSC_GDPS_WindV_AGL-120m_LatLon0.15_PT048H.grib2 2026-04-11 16:24 965K
20260411T12Z_MSC_GDPS_WindV_AGL-40m_LatLon0.15_PT048H.grib2 2026-04-11 16:24 960K
20260411T12Z_MSC_GDPS_WindV_AGL-80m_LatLon0.15_PT048H.grib2 2026-04-11 16:24 965K
20260411T12Z_MSC_GDPS_WindV_IsbL-0001_LatLon0.15_PT048H.grib2 2026-04-11 16:24 541K
20260411T12Z_MSC_GDPS_WindV_IsbL-0005_LatLon0.15_PT048H.grib2 2026-04-11 16:24 772K
20260411T12Z_MSC_GDPS_WindV_IsbL-0010_LatLon0.15_PT048H.grib2 2026-04-11 16:24 806K
20260411T12Z_MSC_GDPS_WindV_IsbL-0020_LatLon0.15_PT048H.grib2 2026-04-11 16:24 866K
20260411T12Z_MSC_GDPS_WindV_IsbL-0030_LatLon0.15_PT048H.grib2 2026-04-11 16:24 860K
20260411T12Z_MSC_GDPS_WindV_IsbL-0050_LatLon0.15_PT048H.grib2 2026-04-11 16:24 910K
20260411T12Z_MSC_GDPS_WindV_IsbL-0100_LatLon0.15_PT048H.grib2 2026-04-11 16:24 1.1M
20260411T12Z_MSC_GDPS_WindV_IsbL-0150_LatLon0.15_PT048H.grib2 2026-04-11 16:24 1.0M
20260411T12Z_MSC_GDPS_WindV_IsbL-0175_LatLon0.15_PT048H.grib2 2026-04-11 16:24 1.0M
20260411T12Z_MSC_GDPS_WindV_IsbL-0200_LatLon0.15_PT048H.grib2 2026-04-11 16:24 1.0M
20260411T12Z_MSC_GDPS_WindV_IsbL-0225_LatLon0.15_PT048H.grib2 2026-04-11 16:24 852K
20260411T12Z_MSC_GDPS_WindV_IsbL-0250_LatLon0.15_PT048H.grib2 2026-04-11 16:24 849K
20260411T12Z_MSC_GDPS_WindV_IsbL-0275_LatLon0.15_PT048H.grib2 2026-04-11 16:24 873K
20260411T12Z_MSC_GDPS_WindV_IsbL-0300_LatLon0.15_PT048H.grib2 2026-04-11 16:24 863K
20260411T12Z_MSC_GDPS_WindV_IsbL-0350_LatLon0.15_PT048H.grib2 2026-04-11 16:24 878K
20260411T12Z_MSC_GDPS_WindV_IsbL-0400_LatLon0.15_PT048H.grib2 2026-04-11 16:24 879K
20260411T12Z_MSC_GDPS_WindV_IsbL-0450_LatLon0.15_PT048H.grib2 2026-04-11 16:24 881K
20260411T12Z_MSC_GDPS_WindV_IsbL-0500_LatLon0.15_PT048H.grib2 2026-04-11 16:24 1.1M
20260411T12Z_MSC_GDPS_WindV_IsbL-0550_LatLon0.15_PT048H.grib2 2026-04-11 16:24 1.1M
20260411T12Z_MSC_GDPS_WindV_IsbL-0600_LatLon0.15_PT048H.grib2 2026-04-11 16:24 1.1M
20260411T12Z_MSC_GDPS_WindV_IsbL-0650_LatLon0.15_PT048H.grib2 2026-04-11 16:24 1.2M
20260411T12Z_MSC_GDPS_WindV_IsbL-0700_LatLon0.15_PT048H.grib2 2026-04-11 16:24 1.2M
20260411T12Z_MSC_GDPS_WindV_IsbL-0750_LatLon0.15_PT048H.grib2 2026-04-11 16:24 1.3M
20260411T12Z_MSC_GDPS_WindV_IsbL-0800_LatLon0.15_PT048H.grib2 2026-04-11 16:24 1.3M
20260411T12Z_MSC_GDPS_WindV_IsbL-0850_LatLon0.15_PT048H.grib2 2026-04-11 16:24 1.4M
20260411T12Z_MSC_GDPS_WindV_IsbL-0875_LatLon0.15_PT048H.grib2 2026-04-11 16:24 1.4M
20260411T12Z_MSC_GDPS_WindV_IsbL-0900_LatLon0.15_PT048H.grib2 2026-04-11 16:24 1.4M
20260411T12Z_MSC_GDPS_WindV_IsbL-0925_LatLon0.15_PT048H.grib2 2026-04-11 16:24 1.4M
20260411T12Z_MSC_GDPS_WindV_IsbL-0950_LatLon0.15_PT048H.grib2 2026-04-11 16:24 1.4M
20260411T12Z_MSC_GDPS_WindV_IsbL-0970_LatLon0.15_PT048H.grib2 2026-04-11 16:24 1.4M
20260411T12Z_MSC_GDPS_WindV_IsbL-0985_LatLon0.15_PT048H.grib2 2026-04-11 16:24 1.4M
20260411T12Z_MSC_GDPS_WindV_IsbL-1000_LatLon0.15_PT048H.grib2 2026-04-11 16:24 1.4M
20260411T12Z_MSC_GDPS_WindV_IsbL-1015_LatLon0.15_PT048H.grib2 2026-04-11 16:24 1.3M